Regional Weather Roundup
Issued by NWS

Home | Current Version | Previous Version | Graphics & Text | Print | Product List | Glossary On
Versions: 1 2 3 4 5 6 7 8 9 10 11 12 13 14 15 16 17 18 19 20 21 22 23 24 25 26 27 28 29 30 31 32 33 34 35 36 37 38 39 40 41 42 43 44 45 46 47 48 49 50
000
ASUS43 KBIS 290831
RWRND
NORTH DAKOTA REGIONAL WEATHER ROUNDUP
NATIONAL WEATHER SERVICE EASTERN NORTH DAKOTA/GRAND FORKS ND
300 AM CDT MON MAY 29 2017

  NOTE: "FAIR" INDICATES FEW OR NO CLOUDS BELOW 12,000 FEET WITH NO
  SIGNIFICANT WEATHER AND/OR OBSTRUCTIONS TO VISIBILITY.

NDZ001>003-009>011-017-290900-
...NORTHWEST NORTH DAKOTA...

CITY           SKY/WX    TMP DP  RH WIND       PRES   REMARKS
WILLISTON      FAIR      50  39  66 NW12      30.09R
MINOT          CLOUDY    53  43  68 NW18G28   29.97R
MINOT AFB      CLOUDY    52  43  73 NW21G26   29.96R
$$

NDZ018>021-031>035-040>046-290900-
...SOUTHWEST NORTH DAKOTA...

CITY           SKY/WX    TMP DP  RH WIND       PRES   REMARKS
BISMARCK       FAIR      51  42  71 NW12      29.98R
DICKINSON      FAIR      39  35  86 NW10      30.06R WCI  32
GARRISON         N/A     47  42  83 NW17      29.98R
HETTINGER      FAIR      35  32  88 W3        30.09R
$$

NDZ004>008-012>016-024-026-027-054-290900-
...NORTHEAST NORTH DAKOTA...

CITY           SKY/WX    TMP DP  RH WIND       PRES   REMARKS
GRAND FORKS    LGT RAIN  51  50  96 NW14      29.80R FOG
GRAND FORKS AF LGT RAIN  50  48  93 N18       29.81R
DEVILS LAKE    CLOUDY    52  45  76 NW12      29.87S
$$

NDZ022-023-025-028>030-036>039-047>053-290900-
...SOUTHEAST NORTH DAKOTA...

CITY           SKY/WX    TMP DP  RH WIND       PRES   REMARKS
JAMESTOWN      CLOUDY    51  46  83 NW17G23   29.87R
FARGO          CLOUDY    52  49  89 NW15      29.80S
WAHPETON       CLOUDY    52  46  82 NW15      29.82R
$$




USA.gov is the U.S. government's official web portal to all federal, state and local government web resources and services.